Time,TemperatureF,DewpointF,PressureIn,WindDirection,WindDirectionDegrees,WindSpeedMPH,WindSpeedGustMPH,Humidity,HourlyPrecipIn,Conditions,Clouds,dailyrainin,SoftwareType,DateUTC
2013-05-17 00:14:00,70.8,58.0,29.86,NNE,18,0.0,0.0,64,0.00,,,0.00,weatherlink.com 1.10,2013-05-17 04:14:00,
2013-05-17 00:29:00,70.0,58.0,29.86,North,9,0.0,0.0,65,0.00,,,0.00,weatherlink.com 1.10,2013-05-17 04:29:00,
2013-05-17 00:44:00,69.9,58.0,29.87,NNE,20,0.0,0.0,65,0.00,,,0.00,weatherlink.com 1.10,2013-05-17 04:44:00,
2013-05-17 00:59:00,69.3,57.0,29.87,North,6,0.0,0.0,66,0.00,,,0.00,weatherlink.com 1.10,2013-05-17 04:59:00,
2013-05-17 01:14:00,69.0,58.0,29.87,NNW,344,0.0,0.0,67,0.00,,,0.00,weatherlink.com 1.10,2013-05-17 05:14:00,
2013-05-17 01:29:00,68.4,57.0,29.87,NNE,18,0.0,0.0,68,0.00,,,0.00,weatherlink.com 1.10,2013-05-17 05:29:00,
2013-05-17 01:44:00,68.5,57.0,29.87,NNE,24,0.0,0.0,68,0.00,,,0.00,weatherlink.com 1.10,2013-05-17 05:44:00,
2013-05-17 01:59:00,67.5,57.0,29.87,NNE,20,0.0,0.0,70,0.00,,,0.00,weatherlink.com 1.10,2013-05-17 05:59:00,
2013-05-17 02:14:00,66.5,57.0,29.87,North,11,0.0,0.0,72,0.00,,,0.00,weatherlink.com 1.10,2013-05-17 06:14:00,
2013-05-17 02:29:00,66.3,57.0,29.88,North,11,0.0,0.0,73,0.00,,,0.00,weatherlink.com 1.10,2013-05-17 06:29:00,
2013-05-17 02:44:00,65.0,57.0,29.88,North,11,0.0,0.0,76,0.00,,,0.00,weatherlink.com 1.10,2013-05-17 06:44:00,
2013-05-17 02:59:00,64.6,57.0,29.88,NNE,12,0.0,0.0,77,0.00,,,0.00,weatherlink.com 1.10,2013-05-17 06:59:00,
2013-05-17 03:14:00,63.6,57.0,29.88,North,11,0.0,0.0,79,0.00,,,0.00,weatherlink.com 1.10,2013-05-17 07:14:00,
2013-05-17 03:29:00,62.7,57.0,29.89,North,11,0.0,0.0,82,0.00,,,0.00,weatherlink.com 1.10,2013-05-17 07:29:00,
2013-05-17 03:44:00,62.0,57.0,29.89,NNE,12,0.0,0.0,83,0.00,,,0.00,weatherlink.com 1.10,2013-05-17 07:44:00,
2013-05-17 03:59:00,60.8,57.0,29.89,NNE,12,0.0,0.0,86,0.00,,,0.00,weatherlink.com 1.10,2013-05-17 07:59:00,
2013-05-17 04:14:00,60.5,56.0,29.90,NNE,12,0.0,0.0,86,0.00,,,0.00,weatherlink.com 1.10,2013-05-17 08:14:00,
2013-05-17 04:29:00,60.5,56.0,29.92,NNE,12,0.0,0.0,86,0.00,,,0.00,weatherlink.com 1.10,2013-05-17 08:29:00,
2013-05-17 04:44:00,59.5,56.0,29.92,North,11,0.0,0.0,88,0.00,,,0.00,weatherlink.com 1.10,2013-05-17 08:44:00,
2013-05-17 04:59:00,59.0,56.0,29.93,NNE,12,0.0,0.0,89,0.00,,,0.00,weatherlink.com 1.10,2013-05-17 08:59:00,
2013-05-17 05:14:00,58.7,56.0,29.94,NNE,12,0.0,0.0,90,0.00,,,0.00,weatherlink.com 1.10,2013-05-17 09:14:00,
2013-05-17 05:29:00,59.0,56.0,29.95,NNE,12,0.0,0.0,89,0.00,,,0.00,weatherlink.com 1.10,2013-05-17 09:29:00,
2013-05-17 05:44:00,58.6,55.0,29.96,North,11,0.0,0.0,89,0.00,,,0.00,weatherlink.com 1.10,2013-05-17 09:44:00,
2013-05-17 06:00:00,58.2,55.0,29.97,NNE,12,0.0,0.0,90,0.00,,,0.00,weatherlink.com 1.10,2013-05-17 10:00:00,
2013-05-17 06:15:00,58.5,56.0,29.98,North,11,0.0,0.0,90,0.00,,,0.00,weatherlink.com 1.10,2013-05-17 10:15:00,
2013-05-17 06:30:00,58.6,55.0,29.98,NNE,12,0.0,0.0,89,0.00,,,0.00,weatherlink.com 1.10,2013-05-17 10:30:00,
2013-05-17 06:45:00,58.6,56.0,29.99,NNE,12,0.0,0.0,90,0.00,,,0.00,weatherlink.com 1.10,2013-05-17 10:45:00,
2013-05-17 07:00:00,60.2,57.0,30.00,NNE,12,0.0,0.0,88,0.00,,,0.00,weatherlink.com 1.10,2013-05-17 11:00:00,
2013-05-17 07:15:00,60.4,57.0,30.01,NNE,12,0.0,0.0,87,0.00,,,0.00,weatherlink.com 1.10,2013-05-17 11:15:00,
2013-05-17 07:29:00,61.4,58.0,30.02,NNE,12,0.0,0.0,87,0.00,,,0.00,weatherlink.com 1.10,2013-05-17 11:29:00,
2013-05-17 07:44:00,63.0,58.0,30.02,NNE,12,0.0,0.0,84,0.00,,,0.00,weatherlink.com 1.10,2013-05-17 11:44:00,
2013-05-17 08:00:00,64.2,58.0,30.02,NNE,12,0.0,0.0,81,0.00,,,0.00,weatherlink.com 1.10,2013-05-17 12:00:00,
2013-05-17 08:15:00,65.2,59.0,30.03,NNE,23,0.0,0.0,80,0.00,,,0.00,weatherlink.com 1.10,2013-05-17 12:15:00,
2013-05-17 08:30:00,66.7,58.0,30.03,NNE,23,0.0,0.0,73,0.00,,,0.00,weatherlink.com 1.10,2013-05-17 12:30:00,
2013-05-17 08:45:00,68.6,51.0,30.04,North,2,0.0,0.0,53,0.00,,,0.00,weatherlink.com 1.10,2013-05-17 12:45:00,
2013-05-17 09:00:00,69.2,49.0,30.04,North,7,0.0,0.0,48,0.00,,,0.00,weatherlink.com 1.10,2013-05-17 13:00:00,
2013-05-17 09:15:00,69.9,49.0,30.04,North,3,0.0,0.0,47,0.00,,,0.00,weatherlink.com 1.10,2013-05-17 13:15:00,
2013-05-17 09:30:00,70.5,47.0,30.04,North,1,0.0,0.0,43,0.00,,,0.00,weatherlink.com 1.10,2013-05-17 13:30:00,
2013-05-17 09:45:00,71.8,47.0,30.04,North,8,0.0,0.0,42,0.00,,,0.00,weatherlink.com 1.10,2013-05-17 13:45:00,
2013-05-17 10:00:00,72.4,47.0,30.04,North,354,0.0,0.0,41,0.00,,,0.00,weatherlink.com 1.10,2013-05-17 14:00:00,
2013-05-17 10:15:00,72.8,46.0,30.04,NNE,12,0.0,0.0,38,0.00,,,0.00,weatherlink.com 1.10,2013-05-17 14:15:00,
2013-05-17 10:30:00,73.3,44.0,30.04,ENE,65,0.0,0.0,35,0.00,,,0.00,weatherlink.com 1.10,2013-05-17 14:30:00,
2013-05-17 10:45:00,74.0,45.0,30.05,NNW,342,0.0,0.0,36,0.00,,,0.00,weatherlink.com 1.10,2013-05-17 14:45:00,
2013-05-17 11:00:00,74.4,44.0,30.05,North,5,0.0,0.0,34,0.00,,,0.00,weatherlink.com 1.10,2013-05-17 15:00:00,
2013-05-17 11:15:00,74.9,42.0,30.05,NNW,336,0.0,0.0,31,0.00,,,0.00,weatherlink.com 1.10,2013-05-17 15:15:00,
2013-05-17 11:30:00,75.6,45.0,30.05,NNE,19,0.0,0.0,34,0.00,,,0.00,weatherlink.com 1.10,2013-05-17 15:30:00,
2013-05-17 11:45:00,76.5,46.0,30.05,NNW,338,0.0,0.0,34,0.00,,,0.00,weatherlink.com 1.10,2013-05-17 15:45:00,
2013-05-17 12:00:00,76.9,44.0,30.04,NNW,327,0.0,0.0,31,0.00,,,0.00,weatherlink.com 1.10,2013-05-17 16:00:00,
2013-05-17 12:15:00,77.3,44.0,30.04,South,183,0.0,0.0,30,0.00,,,0.00,weatherlink.com 1.10,2013-05-17 16:15:00,
2013-05-17 12:30:00,78.0,44.0,30.04,SSW,209,0.0,0.0,30,0.00,,,0.00,weatherlink.com 1.10,2013-05-17 16:30:00,
2013-05-17 12:45:00,78.8,46.0,30.04,NNW,340,0.0,0.0,31,0.00,,,0.00,weatherlink.com 1.10,2013-05-17 16:45:00,
2013-05-17 13:00:00,79.3,48.0,30.03,SSW,199,0.0,0.0,33,0.00,,,0.00,weatherlink.com 1.10,2013-05-17 17:00:00,
2013-05-17 13:15:00,80.9,48.0,30.03,North,351,0.0,0.0,31,0.00,,,0.00,weatherlink.com 1.10,2013-05-17 17:15:00,
2013-05-17 13:30:00,80.9,48.0,30.03,NNW,332,0.0,0.0,32,0.00,,,0.00,weatherlink.com 1.10,2013-05-17 17:30:00,
2013-05-17 13:45:00,81.8,47.0,30.03,SSW,198,0.0,0.0,29,0.00,,,0.00,weatherlink.com 1.10,2013-05-17 17:45:00,
2013-05-17 14:00:00,80.9,46.0,30.02,SSW,193,0.0,0.0,29,0.00,,,0.00,weatherlink.com 1.10,2013-05-17 18:00:00,
2013-05-17 14:15:00,83.2,50.0,30.02,NNW,330,0.0,0.0,31,0.00,,,0.00,weatherlink.com 1.10,2013-05-17 18:15:00,
2013-05-17 14:30:00,83.7,51.0,30.02,East,93,0.0,0.0,32,0.00,,,0.00,weatherlink.com 1.10,2013-05-17 18:30:00,
2013-05-17 14:45:00,80.6,52.0,30.02,South,187,0.0,0.0,37,0.00,,,0.00,weatherlink.com 1.10,2013-05-17 18:45:00,
2013-05-17 15:00:00,80.4,50.0,30.02,SSW,203,0.0,0.0,34,0.00,,,0.00,weatherlink.com 1.10,2013-05-17 19:00:00,
2013-05-17 15:15:00,80.1,50.0,30.02,SW,216,0.0,0.0,35,0.00,,,0.00,weatherlink.com 1.10,2013-05-17 19:15:00,
2013-05-17 15:30:00,80.5,51.0,30.02,SSW,204,0.0,0.0,36,0.00,,,0.00,weatherlink.com 1.10,2013-05-17 19:30:00,
2013-05-17 15:45:00,82.1,51.0,30.02,WSW,238,0.0,0.0,34,0.00,,,0.00,weatherlink.com 1.10,2013-05-17 19:45:00,
2013-05-17 16:00:00,80.5,50.0,30.01,SSW,210,0.0,0.0,35,0.00,,,0.00,weatherlink.com 1.10,2013-05-17 20:00:00,
2013-05-17 16:15:00,80.7,51.0,30.01,SW,218,0.0,0.0,36,0.00,,,0.00,weatherlink.com 1.10,2013-05-17 20:15:00,
2013-05-17 16:30:00,80.4,50.0,30.01,SW,219,0.0,0.0,35,0.00,,,0.00,weatherlink.com 1.10,2013-05-17 20:30:00,
2013-05-17 16:45:00,80.6,51.0,30.01,SW,236,0.0,0.0,35,0.00,,,0.00,weatherlink.com 1.10,2013-05-17 20:45:00,
2013-05-17 17:00:00,80.4,49.0,30.01,WSW,246,0.0,0.0,33,0.00,,,0.00,weatherlink.com 1.10,2013-05-17 21:00:00,
2013-05-17 17:15:00,79.2,49.0,30.02,SW,219,0.0,0.0,35,0.00,,,0.00,weatherlink.com 1.10,2013-05-17 21:15:00,
2013-05-17 17:30:00,79.7,50.0,30.02,SW,234,0.0,0.0,35,0.00,,,0.00,weatherlink.com 1.10,2013-05-17 21:30:00,
2013-05-17 17:45:00,78.5,49.0,30.02,SSW,201,0.0,0.0,36,0.00,,,0.00,weatherlink.com 1.10,2013-05-17 21:45:00,
2013-05-17 18:00:00,78.0,49.0,30.02,SSW,192,0.0,0.0,36,0.00,,,0.00,weatherlink.com 1.10,2013-05-17 22:00:00,
2013-05-17 18:15:00,77.8,49.0,30.02,SSW,207,0.0,0.0,37,0.00,,,0.00,weatherlink.com 1.10,2013-05-17 22:15:00,
2013-05-17 18:30:00,77.2,49.0,30.02,SSW,208,0.0,0.0,37,0.00,,,0.00,weatherlink.com 1.10,2013-05-17 22:30:00,
2013-05-17 18:45:00,77.5,49.0,30.02,SSW,211,3.0,5.0,37,0.00,,,0.00,weatherlink.com 1.10,2013-05-17 22:45:00,
2013-05-17 19:00:00,76.7,48.0,30.02,SSW,202,2.0,6.0,37,0.00,,,0.00,weatherlink.com 1.10,2013-05-17 23:00:00,
2013-05-17 19:16:00,76.1,49.0,30.03,SSW,210,1.0,3.0,38,0.00,,,0.00,weatherlink.com 1.10,2013-05-17 23:16:00,
2013-05-17 19:31:00,75.2,49.0,30.03,SSW,201,1.0,3.0,40,0.00,,,0.00,weatherlink.com 1.10,2013-05-17 23:31:00,
2013-05-17 19:46:00,75.0,50.0,30.04,SSW,202,0.0,4.0,41,0.00,,,0.00,weatherlink.com 1.10,2013-05-17 23:46:00,
2013-05-17 20:01:00,74.9,51.0,30.04,SSW,202,0.0,1.0,43,0.00,,,0.00,weatherlink.com 1.10,2013-05-18 00:01:00,
2013-05-17 20:16:00,74.1,51.0,30.05,SSW,202,0.0,1.0,45,0.00,,,0.00,weatherlink.com 1.10,2013-05-18 00:16:00,
2013-05-17 20:31:00,73.1,52.0,30.05,SSW,202,0.0,0.0,47,0.00,,,0.00,weatherlink.com 1.10,2013-05-18 00:31:00,
2013-05-17 20:46:00,72.5,52.0,30.05,SSW,202,0.0,0.0,49,0.00,,,0.00,weatherlink.com 1.10,2013-05-18 00:46:00,
2013-05-17 21:01:00,71.2,52.0,30.06,SSW,202,0.0,0.0,51,0.00,,,0.00,weatherlink.com 1.10,2013-05-18 01:01:00,
2013-05-17 21:16:00,70.0,52.0,30.06,SSW,202,0.0,0.0,54,0.00,,,0.00,weatherlink.com 1.10,2013-05-18 01:16:00,
2013-05-17 21:31:00,69.8,52.0,30.06,SSW,202,0.0,0.0,54,0.00,,,0.00,weatherlink.com 1.10,2013-05-18 01:31:00,
2013-05-17 21:46:00,69.8,52.0,30.07,SSW,202,0.0,0.0,53,0.00,,,0.00,weatherlink.com 1.10,2013-05-18 01:46:00,
2013-05-17 22:01:00,70.4,53.0,30.08,SSW,202,0.0,0.0,54,0.00,,,0.00,weatherlink.com 1.10,2013-05-18 02:01:00,
2013-05-17 22:16:00,69.3,53.0,30.08,SSW,202,0.0,0.0,57,0.00,,,0.00,weatherlink.com 1.10,2013-05-18 02:16:00,
2013-05-17 22:31:00,68.8,53.0,30.08,SSW,202,0.0,0.0,58,0.00,,,0.00,weatherlink.com 1.10,2013-05-18 02:31:00,
2013-05-17 22:46:00,67.8,54.0,30.09,SW,218,0.0,3.0,61,0.00,,,0.00,weatherlink.com 1.10,2013-05-18 02:46:00,
2013-05-17 23:01:00,68.1,55.0,30.09,SW,218,0.0,2.0,63,0.00,,,0.00,weatherlink.com 1.10,2013-05-18 03:01:00,
2013-05-17 23:16:00,67.2,56.0,30.10,SW,218,0.0,1.0,67,0.00,,,0.00,weatherlink.com 1.10,2013-05-18 03:16:00,
2013-05-17 23:31:00,67.2,56.0,30.10,SW,218,0.0,1.0,68,0.00,,,0.00,weatherlink.com 1.10,2013-05-18 03:31:00,
2013-05-17 23:46:00,66.7,57.0,30.11,SW,218,0.0,1.0,70,0.00,,,0.00,weatherlink.com 1.10,2013-05-18 03:46:00,